Bellefontaine, OH

7:51 PM EDT on March 27, 2017 (GMT -0400)
Bellefontaine

Weather History for KEDJ - November, 2013

Change the Weather History Date:

Saturday, November 30, 2013

  Actual Average (KDAY) Record (KDAY)
Temperature  
Mean Temperature 36 °F -  
Max Temperature 44 °F 44 °F 69 °F (1934)
Min Temperature 28 °F 30 °F -2 °F (1958)
Degree Days  
Heating Degree Days 29    
Moisture  
Dew Point 25 °F    
Average Humidity 69    
Maximum Humidity 87    
Minimum Humidity 49    
Precipitation  
Precipitation 0.00 in - - ()
Sea Level Pressure  
Sea Level Pressure 30.29 in    
Wind  
Wind Speed 10 mph (SSE)    
Max Wind Speed 13 mph    
Max Gust Speed 17 mph    
Visibility 10 miles    
Events      
Averages and records for this station are not official NWS values.
T = Trace of Precipitation, MM = Missing Value Source: NWS Daily Summary

Daily Weather History Graph

Daily Weather History Graph

Search for Another Location

Airport or City:

Trip Planner

Search our weather history database for the weather conditions in past years. The results will help you decide how hot, cold, wet, or windy it might be!

Date:

Astronomy

Nov. 30, 2013 Rise Set
Actual Time 7:38 AM EST 5:09 PM EST
Civil Twilight 7:08 AM EST 5:39 PM EST
Nautical Twilight 6:34 AM EST 6:13 PM EST
Astronomical Twilight 6:01 AM EST 6:46 PM EST
Moon 4:47 AM EST (11/30) 3:33 PM EST (11/30)
Length of Visible Light 10h 31m
Length of Day
9h 31m
Waning Crescent, 7% of the Moon is Illuminated
Nov 30
Waning Crescent
Dec 2
New
Dec 9
First Quarter
Dec 17
Full
Dec 25
Last Quarter

Hourly Weather History & Observations

Time (EST) Temp. Windchill Dew Point Humidity Pressure Visibility Wind Dir Wind Speed Gust Speed Precip Events Conditions
12:05 AM 30.2 °F 21.9 °F 21.2 °F 69% 30.48 in 10.0 mi SE 9.2 mph - 0.00 in   Clear
12:25 AM 28.4 °F 19.7 °F 21.2 °F 74% 30.47 in 10.0 mi SE 9.2 mph - 0.00 in   Clear
12:45 AM 30.2 °F 21.9 °F 21.2 °F 69% 30.47 in 10.0 mi SE 9.2 mph - 0.00 in   Clear
1:05 AM 28.4 °F 19.7 °F 21.2 °F 74% 30.46 in 10.0 mi SE 9.2 mph - 0.00 in   Clear
1:25 AM 28.4 °F 19.7 °F 21.2 °F 74% 30.46 in 10.0 mi SE 9.2 mph - 0.00 in   Clear
1:45 AM 28.4 °F 19.7 °F 21.2 °F 74% 30.46 in 10.0 mi SE 9.2 mph - 0.00 in   Clear
2:05 AM 28.4 °F 19.7 °F 21.2 °F 74% 30.45 in 10.0 mi SE 9.2 mph - 0.00 in   Clear
2:25 AM 28.4 °F 20.4 °F 21.2 °F 74% 30.44 in 10.0 mi SE 8.1 mph - 0.00 in   Clear
2:45 AM 28.4 °F 19.7 °F 21.2 °F 74% 30.44 in 10.0 mi SE 9.2 mph - 0.00 in   Clear
3:05 AM 28.4 °F 19.7 °F 23.0 °F 80% 30.43 in 10.0 mi SE 9.2 mph - 0.00 in   Clear
3:25 AM 28.4 °F 19.1 °F 23.0 °F 80% 30.42 in 10.0 mi SE 10.4 mph - 0.00 in   Clear
3:45 AM 28.4 °F 19.7 °F 23.0 °F 80% 30.42 in 10.0 mi SSE 9.2 mph - 0.00 in   Clear
4:05 AM 30.2 °F 22.6 °F 23.0 °F 75% 30.41 in 10.0 mi SSE 8.1 mph - 0.00 in   Clear
4:25 AM 30.2 °F 21.3 °F 23.0 °F 75% 30.41 in 10.0 mi SSE 10.4 mph - 0.00 in   Clear
4:45 AM 30.2 °F 21.9 °F 23.0 °F 75% 30.41 in 10.0 mi SSE 9.2 mph - 0.00 in   Clear
5:05 AM 30.2 °F 21.9 °F 23.0 °F 75% 30.41 in 10.0 mi SSE 9.2 mph - 0.00 in   Clear
5:25 AM 30.2 °F 21.9 °F 23.0 °F 75% 30.41 in 10.0 mi SSE 9.2 mph - 0.00 in   Clear
5:45 AM 30.2 °F 21.3 °F 23.0 °F 75% 30.40 in 10.0 mi SSE 10.4 mph - 0.00 in   Clear
6:05 AM 30.2 °F 20.8 °F 23.0 °F 75% 30.40 in 10.0 mi SSE 11.5 mph - 0.00 in   Clear
6:25 AM 30.2 °F 21.3 °F 21.2 °F 69% 30.40 in 10.0 mi SSE 10.4 mph - 0.00 in   Clear
6:45 AM 30.2 °F 21.3 °F 21.2 °F 69% 30.39 in 10.0 mi SSE 10.4 mph - 0.00 in   Clear
7:05 AM 30.2 °F 21.9 °F 23.0 °F 75% 30.39 in 10.0 mi SSE 9.2 mph - 0.00 in   Clear
7:25 AM 30.2 °F 21.3 °F 23.0 °F 75% 30.39 in 10.0 mi SSE 10.4 mph - 0.00 in   Clear
7:45 AM 30.2 °F 20.8 °F 23.0 °F 75% 30.38 in 10.0 mi SSE 11.5 mph - 0.00 in   Clear
8:05 AM 30.2 °F 21.3 °F 23.0 °F 75% 30.37 in 10.0 mi SSE 10.4 mph - 0.00 in   Clear
8:25 AM 30.2 °F 21.3 °F 23.0 °F 75% 30.37 in 10.0 mi SSE 10.4 mph - 0.00 in   Clear
8:45 AM 32.0 °F 23.0 °F 23.0 °F 69% 30.37 in 10.0 mi SSE 11.5 mph - 0.00 in   Clear
9:05 AM 32.0 °F 23.6 °F 23.0 °F 69% 30.37 in 10.0 mi SSE 10.4 mph - 0.00 in   Clear
9:25 AM 32.0 °F 24.2 °F 23.0 °F 69% 30.36 in 10.0 mi SSE 9.2 mph - 0.00 in   Clear
9:45 AM 32.0 °F 24.2 °F 23.0 °F 69% 30.37 in 10.0 mi South 9.2 mph - 0.00 in   Clear
10:05 AM 33.8 °F 25.3 °F 24.8 °F 70% 30.36 in 10.0 mi South 11.5 mph - 0.00 in   Clear
10:25 AM 33.8 °F 25.8 °F 24.8 °F 70% 30.35 in 10.0 mi South 10.4 mph - 0.00 in   Clear
10:45 AM 33.8 °F 27.0 °F 24.8 °F 70% 30.35 in 10.0 mi South 8.1 mph - 0.00 in   Clear
11:05 AM 33.8 °F 27.7 °F 26.6 °F 75% 30.35 in 10.0 mi South 6.9 mph - 0.00 in   Clear
11:25 AM 35.6 °F 28.0 °F 26.6 °F 70% 30.33 in 10.0 mi South 10.4 mph - 0.00 in   Clear
11:45 AM 37.4 °F 29.8 °F 26.6 °F 65% 30.30 in 10.0 mi South 11.5 mph - 0.00 in   Clear
12:05 PM 39.2 °F 33.0 °F 26.6 °F 61% 30.30 in 10.0 mi South 9.2 mph - 0.00 in   Clear
12:25 PM 41.0 °F 36.4 °F 26.6 °F 57% 30.28 in 10.0 mi South 6.9 mph - 0.00 in   Clear
12:45 PM 42.8 °F 37.0 °F 26.6 °F 53% 30.27 in 10.0 mi SW 10.4 mph - 0.00 in   Clear
1:05 PM 42.8 °F 36.2 °F 26.6 °F 53% 30.26 in 10.0 mi SW 12.7 mph 17.3 mph 0.00 in   Clear
1:25 PM 44.6 °F 39.7 °F 26.6 °F 49% 30.24 in 10.0 mi SSW 9.2 mph - 0.00 in   Clear
1:45 PM 44.6 °F 39.7 °F 26.6 °F 49% 30.23 in 10.0 mi SSW 9.2 mph - 0.00 in   Clear
2:05 PM 44.6 °F 38.8 °F 26.6 °F 49% 30.22 in 10.0 mi SSW 11.5 mph 16.1 mph 0.00 in   Clear
2:25 PM 44.6 °F 38.8 °F 26.6 °F 49% 30.21 in 10.0 mi South 11.5 mph - 0.00 in   Clear
2:45 PM 44.6 °F 38.8 °F 26.6 °F 49% 30.20 in 10.0 mi SSW 11.5 mph - 0.00 in   Clear
3:05 PM 44.6 °F 39.7 °F 26.6 °F 49% 30.20 in 10.0 mi SSW 9.2 mph - 0.00 in   Clear
3:25 PM 44.6 °F 39.7 °F 26.6 °F 49% 30.19 in 10.0 mi SSW 9.2 mph - 0.00 in   Clear
3:45 PM 44.6 °F 38.4 °F 26.6 °F 49% 30.18 in 10.0 mi South 12.7 mph - 0.00 in   Clear
4:05 PM 44.6 °F 39.2 °F 26.6 °F 49% 30.17 in 10.0 mi South 10.4 mph - 0.00 in   Clear
4:25 PM 42.8 °F 37.0 °F 26.6 °F 53% 30.17 in 10.0 mi South 10.4 mph - 0.00 in   Clear
4:45 PM 41.0 °F 35.8 °F 26.6 °F 57% 30.17 in 10.0 mi South 8.1 mph - 0.00 in   Clear
5:05 PM 37.4 °F 31.4 °F 24.8 °F 60% 30.17 in 10.0 mi South 8.1 mph - 0.00 in   Clear
5:25 PM 35.6 °F 29.9 °F 24.8 °F 65% 30.16 in 10.0 mi SSE 6.9 mph - 0.00 in   Clear
5:45 PM 33.8 °F 27.0 °F 24.8 °F 70% 30.17 in 10.0 mi SSE 8.1 mph - 0.00 in   Clear
6:05 PM 33.8 °F 26.4 °F 26.6 °F 75% 30.17 in 10.0 mi SSE 9.2 mph - 0.00 in   Clear
6:25 PM 33.8 °F 26.4 °F 26.6 °F 75% 30.17 in 10.0 mi SSE 9.2 mph - 0.00 in   Clear
6:45 PM 33.8 °F 26.4 °F 26.6 °F 75% 30.16 in 10.0 mi SSE 9.2 mph - 0.00 in   Clear
7:05 PM 35.6 °F 28.0 °F 26.6 °F 70% 30.16 in 10.0 mi SSE 10.4 mph - 0.00 in   Clear
7:25 PM 35.6 °F 28.0 °F 28.4 °F 75% 30.16 in 10.0 mi SSE 10.4 mph - 0.00 in   Clear
7:45 PM 33.8 °F 25.8 °F 28.4 °F 81% 30.16 in 10.0 mi SSE 10.4 mph - 0.00 in   Clear
8:05 PM 33.8 °F 25.8 °F 28.4 °F 81% 30.15 in 10.0 mi SSE 10.4 mph - 0.00 in   Clear
8:25 PM 35.6 °F 28.6 °F 28.4 °F 75% 30.15 in 10.0 mi SSE 9.2 mph - 0.00 in   Clear
8:45 PM 33.8 °F 26.4 °F 28.4 °F 81% 30.15 in 10.0 mi SSE 9.2 mph - 0.00 in   Clear
9:05 PM 33.8 °F 27.0 °F 28.4 °F 81% 30.15 in 10.0 mi SSE 8.1 mph - 0.00 in   Clear
9:25 PM 33.8 °F 26.4 °F 28.4 °F 81% 30.14 in 10.0 mi SSE 9.2 mph - 0.00 in   Clear
9:45 PM 33.8 °F 26.4 °F 28.4 °F 81% 30.14 in 10.0 mi SSE 9.2 mph - 0.00 in   Clear
10:05 PM 32.0 °F 24.2 °F 28.4 °F 87% 30.13 in 10.0 mi SSE 9.2 mph - 0.00 in   Clear
10:25 PM 33.8 °F 26.4 °F 28.4 °F 81% 30.13 in 10.0 mi SSE 9.2 mph - 0.00 in   Clear
10:45 PM 35.6 °F 29.2 °F 28.4 °F 75% 30.13 in 10.0 mi SSE 8.1 mph - 0.00 in   Clear
11:05 PM 35.6 °F 29.2 °F 28.4 °F 75% 30.12 in 10.0 mi SSE 8.1 mph - 0.00 in   Clear
11:25 PM 35.6 °F 29.2 °F 28.4 °F 75% 30.12 in 10.0 mi SSE 8.1 mph - 0.00 in   Clear
11:45 PM 35.6 °F 29.2 °F 28.4 °F 75% 30.12 in 10.0 mi South 8.1 mph - 0.00 in   Clear